Lapse_Rate
8.5 8.8 9.5 9.6 9.5 8.9 9.7 9.4 9.6 9.5 9.1 9.3 9.4 8.7 7.1 6.7 6.6 6.4 6.2 5.8 5.6 5.3 6.2 6.3 6.2 5.9 5.9 5.7 5.7 5.5 5.3 5.3 5.4 5.4 5.5 5.6 5.5 5.6 5.8 5.9 6.0 6.1 5.9 5.8
8.9 9.1 9.6 9.7 9.5 9.2 9.6 9.6 9.6 9.5 9.4 9.0 9.4 9.5 8.2 7.1 7.0 6.9 6.5 6.3 6.1 5.8 5.9 6.6 6.5 6.4 6.4 6.3 6.1 5.9 5.8 5.7 5.7 5.7 5.6 6.1 5.8 5.8 6.0 6.0 6.0 6.0 5.8 5.8
8.9 9.1 9.6 9.6 9.6 9.6 9.6 9.6 9.7 9.7 9.5 9.1 9.3 9.5 8.8 8.1 7.4 7.3 7.0 6.7 6.5 6.3 6.0 6.7 6.6 6.7 6.6 6.4 6.3 6.4 6.3 6.2 6.1 5.9 6.0 6.2 6.2 6.0 5.9 5.9 6.0 6.2 6.3 6.3
8.9 9.6 9.6 9.6 9.6 9.6 9.6 9.7 9.7 9.7 9.6 9.9 9.4 9.6 8.9 8.5 8.0 7.6 7.4 7.1 6.8 6.6 6.6 7.0 6.9 7.0 6.8 6.7 6.6 6.5 6.6 6.5 6.4 6.4 6.4 6.4 6.2 6.2 5.9 5.9 5.8 5.9 6.1 6.1
9.0 9.6 9.6 9.6 9.6 9.6 9.9 9.7 9.6 9.7 9.6 9.6 9.6 9.6 9.6 8.7 8.4 8.1 7.8 7.4 7.2 6.7 7.2 7.3 7.2 7.3 7.3 7.1 7.0 6.8 6.7 6.6 6.5 6.4 6.4 6.4 6.3 6.3 6.3 6.1 6.0 6.0 6.0 5.9
9.3 9.2 9.6 9.5 9.6 9.6 9.7 9.6 9.6 9.6 9.6 9.8 9.6 9.8 9.5 9.3 8.7 8.4 8.2 7.9 7.3 7.1 7.1 7.4 7.3 7.4 7.4 7.2 7.0 6.9 6.9 6.9 6.8 6.6 6.7 6.5 6.4 6.3 6.2 6.2 6.3 6.2 5.6 5.5
8.7 9.6 9.6 9.1 9.6 9.6 9.6 9.7 9.7 9.9 9.9 9.9 9.6 9.7 9.8 9.6 8.8 8.9 8.3 8.3 8.0 7.5 7.2 7.7 7.5 7.5 7.3 7.2 7.1 7.2 7.2 7.1 7.1 6.9 6.7 6.5 6.5 6.6 6.7 6.6 6.5 6.3 5.9 5.3
8.5 9.1 8.7 8.8 9.4 9.6 9.4 9.6 9.7 9.5 9.9 9.8 9.4 9.7 9.7 9.7 9.6 9.1 9.1 8.7 8.5 8.0 7.5 7.4 7.9 7.9 7.7 7.7 7.6 7.4 7.3 7.3 7.2 7.0 6.9 6.9 6.9 6.9 6.8 6.7 6.6 6.6 6.4 5.7
8.5 8.3 8.6 8.4 8.5 9.5 9.5 9.4 9.6 9.7 9.7 9.9 9.6 9.6 9.7 9.7 9.0 8.9 9.1 9.3 8.8 8.7 8.2 7.6 7.5 8.0 7.9 7.8 7.8 7.6 7.5 7.5 7.4 7.4 7.2 7.0 7.1 7.3 7.2 7.0 6.9 6.6 6.4 6.3
9.5 9.4 9.4 8.4 8.5 8.8 9.6 9.4 9.6 9.5 9.7 9.6 10.0 9.6 9.7 9.6 9.6 9.7 9.0 9.2 9.1 8.9 8.8 8.3 7.7 7.9 8.2 8.1 8.0 7.9 7.9 7.8 7.7 7.7 7.5 7.5 7.4 7.4 7.2 6.9 6.8 6.6 6.6 6.3
9.3 9.5 9.6 9.4 8.3 8.7 8.8 9.6 9.6 9.6 9.6 9.9 9.8 9.7 9.7 9.7 9.6 9.6 9.1 9.1 9.1 9.0 9.0 8.7 8.3 7.7 8.4 8.2 8.2 8.2 8.1 8.0 7.9 7.8 7.8 7.6 7.5 7.2 6.9 6.8 6.7 6.7 6.5 6.3
8.6 9.5 9.6 9.3 8.9 8.7 9.5 9.3 9.6 9.6 9.7 9.6 9.6 9.8 9.6 9.7 9.7 8.9 8.9 8.9 9.0 8.9 8.9 8.8 8.4 8.0 8.0 8.5 8.3 8.4 8.3 8.2 8.2 8.0 7.9 7.6 7.6 7.3 7.1 6.9 6.8 6.5 6.3 6.2
8.4 8.8 9.4 9.7 9.5 8.6 9.2 9.2 9.6 9.6 9.6 9.7 9.7 9.7 9.6 9.6 9.3 9.0 9.2 8.6 8.8 8.7 8.7 8.7 8.6 8.4 8.4 8.8 8.8 8.7 8.8 8.6 8.6 8.4 8.2 8.0 8.0 7.6 7.4 7.2 7.0 6.6 6.4 6.3
8.3 8.8 9.2 9.6 9.1 9.0 8.8 9.5 9.5 9.6 9.6 9.7 9.6 9.6 9.7 9.7 9.6 9.2 9.0 8.7 8.6 8.9 8.9 9.1 9.0 9.0 9.0 9.0 8.9 8.8 8.7 8.5 8.5 8.4 8.4 8.3 8.0 7.9 7.8 7.5 7.3 7.0 6.7 6.5
8.2 8.4 8.6 9.2 9.7 9.6 9.5 9.5 9.5 9.6 9.6 9.7 9.6 9.6 9.7 9.7 9.7 9.6 9.1 8.6 8.5 9.2 9.2 9.1 9.2 9.0 9.2 9.2 9.1 8.9 8.8 8.7 8.7 8.6 8.7 8.7 8.5 8.3 7.9 7.7 7.5 7.2 6.8 6.5
7.9 8.0 8.5 8.8 9.5 9.7 9.6 9.6 8.8 9.6 9.6 9.6 9.6 9.6 9.7 9.7 9.7 9.3 9.6 8.9 9.0 9.2 9.2 9.1 9.1 9.1 9.2 9.3 9.1 9.2 9.1 9.0 8.9 8.8 8.9 8.8 8.5 8.3 8.1 7.8 7.5 7.1 6.7 6.6
7.8 8.1 8.4 8.5 9.3 9.6 9.6 9.6 9.6 9.3 9.6 9.6 9.6 9.7 9.7 9.7 9.7 9.5 9.3 8.6 8.5 8.7 8.8 8.9 9.1 9.1 9.2 9.2 9.0 9.2 9.1 9.0 8.9 8.8 8.8 8.6 8.3 8.2 8.1 7.8 7.2 6.8 6.4 6.6
7.7 8.1 8.1 8.4 9.3 9.8 9.3 9.6 9.6 9.6 9.6 9.6 9.6 9.7 9.7 9.7 9.6 8.9 8.8 8.6 8.4 7.9 8.9 9.0 8.9 8.9 9.0 9.1 9.0 9.0 9.0 8.8 8.8 8.7 8.7 8.4 8.0 7.9 7.7 7.3 6.8 6.5 6.4 6.6
7.9 7.9 8.2 8.6 9.2 8.7 9.5 9.4 9.5 9.4 9.5 9.6 9.6 9.2 9.4 9.5 8.7 8.4 8.4 8.6 8.7 8.4 9.0 9.1 9.0 8.9 9.0 9.0 9.1 9.1 8.9 8.7 8.7 8.6 8.6 8.4 8.1 7.8 7.5 7.3 7.1 6.7 6.4 6.6
8.3 7.9 8.0 8.2 9.0 9.5 9.2 9.6 9.6 9.4 8.6 8.6 8.3 8.2 8.6 8.5 8.6 8.3 8.5 8.8 8.5 8.7 9.3 9.5 9.4 9.3 9.2 9.1 9.0 8.9 8.8 8.6 8.6 8.5 8.4 8.1 7.7 7.5 7.6 7.7 7.7 7.0 6.5 6.6
7.8 7.8 7.8 8.5 8.3 8.9 9.6 9.7 9.7 8.8 8.7 8.8 8.3 8.1 8.3 8.4 8.6 8.6 8.7 8.9 9.0 9.2 9.5 9.5 9.5 9.4 9.3 8.9 8.8 8.7 8.6 8.4 8.3 8.3 8.2 7.8 7.7 7.7 7.8 7.4 7.4 7.0 6.5 6.2
7.5 7.1 7.7 8.2 8.8 8.6 9.2 9.6 9.1 8.7 8.6 8.7 8.6 8.5 8.3 8.3 8.6 8.5 8.6 8.7 9.1 9.3 9.3 9.4 9.4 9.3 9.1 8.9 8.8 8.5 8.2 8.2 8.2 8.1 7.8 7.7 8.2 8.2 7.8 7.5 7.3 6.9 6.5 6.3
7.4 7.4 7.9 7.8 7.8 8.3 8.3 9.0 9.6 9.6 8.4 8.4 8.7 8.8 8.6 8.3 8.4 8.3 8.5 8.9 9.2 9.2 9.3 9.3 9.3 9.3 9.2 8.8 8.4 8.2 8.2 8.1 8.1 7.9 7.8 7.7 7.9 7.6 7.8 7.4 7.3 7.2 6.7 6.4
7.6 7.8 7.8 8.2 7.8 8.4 8.2 8.7 8.6 8.6 8.7 8.6 8.6 8.8 8.8 8.7 8.6 8.1 8.8 8.9 9.3 9.4 9.4 9.3 9.2 9.2 9.2 8.5 8.1 7.8 7.8 8.1 8.0 7.9 7.8 7.7 7.5 7.7 7.6 7.2 7.4 7.1 6.7 6.6
9.0 7.8 7.5 7.9 8.1 8.1 8.3 8.2 8.4 8.5 8.5 8.5 8.6 8.4 8.3 8.6 8.6 8.9 8.9 8.9 9.1 9.3 9.3 9.2 9.1 9.0 8.7 8.0 7.5 7.5 7.8 8.0 7.9 7.7 7.5 7.3 7.6 7.5 7.3 6.9 7.0 6.5 6.4 6.6
8.6 9.1 8.0 8.0 8.4 8.0 8.3 8.1 8.4 8.6 8.5 8.6 9.0 8.7 8.6 8.2 8.8 9.3 9.3 9.3 9.2 9.3 9.2 9.3 9.1 8.9 8.1 7.3 7.2 7.6 7.8 7.8 7.6 7.4 7.4 7.6 7.6 7.5 7.4 7.1 6.6 6.7 6.5 6.3
Wind_Speed
18 14 16 20 8 9 11 3 12 10 8 6 2 17 14 14 12 13 13 13 14 14 15 15 14 15 18 15 16 15 14 10 9 8 8 7 7 6 6 8 8 8 8 8
16 20 20 19 18 14 4 6 8 8 8 8 10 7 17 16 13 14 13 14 14 14 16 17 16 15 16 17 17 16 15 13 11 9 7 7 6 6 6 7 6 8 9 8
22 23 21 18 8 12 13 13 12 6 5 10 5 10 14 17 15 13 14 14 14 15 17 16 17 16 16 16 17 17 16 14 13 13 8 7 7 7 8 8 8 9 8 6
23 22 21 10 15 17 16 7 4 4 9 4 9 2 14 16 15 16 15 15 16 16 17 17 18 17 17 17 17 16 16 15 14 13 11 11 9 8 7 7 6 3 4 7
25 24 19 21 21 17 10 9 8 6 8 11 14 8 15 16 16 17 17 18 17 18 18 19 19 19 18 16 15 16 14 14 14 13 13 11 10 9 8 8 7 4 6 10
25 23 19 20 19 18 18 6 7 11 11 12 12 12 13 15 16 17 18 19 19 18 19 18 19 19 17 16 16 15 15 13 14 13 14 13 10 9 9 6 6 7 7 5
26 28 21 18 22 21 13 11 10 11 11 9 17 10 4 15 12 17 20 19 21 20 20 19 19 19 18 19 18 15 15 15 15 16 14 15 13 11 10 9 8 8 8 7
22 25 20 23 25 20 19 20 13 15 12 11 7 7 6 10 16 11 17 21 20 21 20 21 21 19 20 20 19 18 17 15 16 16 14 12 13 10 10 10 9 8 9 6
23 29 25 25 21 25 18 21 23 22 17 8 14 12 16 10 11 9 12 18 22 21 21 21 21 20 19 19 19 18 16 16 16 17 13 13 12 13 10 10 8 8 7 8
20 21 24 25 20 28 26 20 21 17 15 13 9 16 10 16 15 13 14 16 20 22 21 20 19 20 18 18 17 18 17 16 16 15 13 12 12 12 11 10 11 9 7 7
28 19 24 23 23 23 22 20 23 20 15 11 12 12 12 14 12 7 8 17 18 20 20 18 19 18 17 17 17 17 16 15 14 12 11 10 10 11 10 10 8 6 2 3
28 11 17 24 22 24 23 22 25 15 18 15 11 3 19 15 8 6 10 14 17 17 17 17 16 17 17 15 16 15 14 13 12 11 9 9 8 8 7 3 4 3 2 2
25 17 17 21 23 23 24 25 23 25 18 15 13 10 8 10 5 7 10 15 16 17 15 13 13 13 14 14 12 13 12 11 10 9 9 9 8 6 3 6 5 3 3 1
24 21 20 18 21 22 28 27 28 22 17 15 17 15 16 11 9 12 8 14 15 15 15 14 13 11 11 11 11 11 11 10 10 10 10 9 7 7 8 5 4 5 3 4
27 28 22 23 21 25 24 28 26 28 25 21 19 16 12 7 8 9 13 13 15 15 16 16 15 13 14 13 13 12 11 11 12 11 10 10 8 8 8 7 6 6 5 5
23 21 27 24 27 23 29 30 32 29 28 23 22 16 7 12 9 12 11 12 14 15 16 16 16 16 15 15 14 14 13 13 12 13 12 11 10 10 9 7 6 5 4 4
24 20 21 24 24 22 22 26 28 30 27 24 23 19 16 9 11 12 13 12 14 16 17 17 17 16 15 16 16 15 15 15 13 14 13 12 11 10 8 7 6 5 4 4
22 19 16 19 19 29 11 20 19 24 25 26 23 19 17 12 11 12 13 14 15 14 16 17 16 17 17 16 17 16 16 16 15 15 14 12 11 9 7 6 5 5 4 5
25 19 14 17 20 17 21 21 20 16 16 15 15 16 15 12 10 12 8 13 12 14 15 15 16 17 17 18 18 18 17 16 16 15 14 12 11 10 8 7 6 4 3 3
16 18 15 15 23 27 19 22 18 21 20 18 16 19 20 16 13 10 17 15 9 15 16 16 18 19 18 18 18 18 18 16 15 15 14 12 10 8 6 8 7 4 2 4
15 16 21 16 17 16 15 15 19 19 12 19 23 21 21 18 15 13 11 15 15 17 18 19 19 18 18 18 18 18 17 16 14 14 14 13 11 11 8 6 7 4 2 3
17 16 15 18 16 17 17 16 23 12 14 13 20 19 20 19 20 9 8 14 18 19 20 21 18 16 16 17 16 16 16 14 14 14 14 12 5 6 8 8 6 4 2 4
19 19 14 15 17 2 14 14 15 17 15 16 17 16 18 16 17 13 14 16 16 20 18 18 18 17 16 17 16 17 15 15 14 14 14 12 11 8 8 7 4 6 4 4
19 19 17 14 16 18 9 11 4 5 12 10 14 16 16 16 13 16 15 17 17 17 18 17 17 18 17 15 15 15 16 15 15 15 14 11 10 8 6 5 5 6 5 5
10 15 16 20 14 15 15 14 10 10 8 9 11 14 12 9 14 17 17 18 17 18 18 17 16 16 17 15 15 15 16 15 14 14 13 11 9 9 8 7 6 9 7 6
18 14 13 10 13 14 11 19 19 15 15 10 10 12 16 15 19 19 17 17 18 19 18 16 16 17 16 15 15 15 14 14 14 13 10 8 8 8 9 8 7 12 11 9
Wind_Direction
202 218 219 209 202 225 232 29 131 115 112 239 54 134 158 172 182 170 169 170 176 179 173 176 189 180 183 190 198 200 206 209 212 213 226 231 248 250 259 268 276 287 282 286
195 221 219 228 158 234 252 199 134 93 122 273 152 180 152 172 189 171 180 173 177 172 161 170 181 187 194 191 194 203 211 208 211 216 232 250 264 267 285 291 306 281 286 295
213 208 229 222 168 222 216 210 135 96 167 212 250 179 167 171 182 176 177 177 183 176 167 174 181 188 192 196 200 202 207 211 211 227 220 231 247 255 261 260 250 236 238 276
219 213 217 197 218 217 218 225 73 228 243 244 183 306 183 170 184 181 180 179 182 183 180 176 182 190 195 197 195 202 203 210 214 214 234 223 246 250 252 257 259 308 283 260
212 222 213 198 214 213 251 148 199 239 259 268 186 243 155 173 187 186 187 182 186 181 185 180 187 189 195 194 195 194 195 203 216 204 227 227 225 251 251 260 272 240 275 264
224 214 218 216 220 229 236 185 230 248 248 247 247 243 173 173 186 192 188 181 184 182 186 187 182 185 194 195 194 190 187 196 203 212 210 235 248 231 260 253 265 258 290 275
216 224 208 222 221 219 232 211 221 222 225 244 201 213 226 152 179 186 187 189 180 184 185 187 184 186 191 196 196 192 183 195 200 205 211 213 223 230 244 253 255 270 278 262
202 216 199 217 232 211 214 220 226 209 221 184 203 222 203 146 159 169 186 189 188 183 185 187 189 190 191 196 196 198 184 194 200 204 208 212 214 223 227 234 254 274 276 299
203 215 195 218 211 236 196 223 244 249 229 259 177 201 229 152 185 188 197 190 188 190 188 190 190 189 192 195 198 200 195 193 205 208 205 208 215 229 239 240 245 248 262 275
195 209 209 198 213 224 232 204 227 245 262 239 180 174 216 184 206 194 188 208 193 191 193 187 192 187 193 193 195 198 199 197 206 213 207 211 217 223 234 243 252 262 267 277
234 210 207 186 204 205 210 226 212 237 237 233 243 187 178 171 188 152 214 201 196 195 198 193 189 190 194 195 192 196 199 194 201 206 208 209 212 218 222 235 242 259 68 63
223 213 225 195 197 222 205 216 203 224 212 257 275 308 171 156 173 194 156 181 189 197 199 193 195 190 186 199 192 190 194 195 190 194 200 201 208 224 226 203 67 60 73 267
204 226 215 192 198 206 219 206 215 220 241 221 243 137 126 138 156 159 166 175 182 190 190 180 188 188 187 186 199 188 182 184 179 177 180 195 189 178 163 100 102 182 221 317
199 216 231 211 206 196 214 209 218 221 220 234 213 249 147 161 194 156 213 170 177 185 171 170 170 168 170 171 181 175 165 167 162 170 177 161 145 115 109 117 116 94 77 59
199 221 219 245 214 205 204 217 222 223 228 226 231 211 236 205 191 208 171 165 176 185 176 165 169 167 164 161 161 160 155 152 154 155 124 109 111 104 118 113 106 90 59 48
201 218 227 227 243 205 210 208 221 227 225 236 245 243 229 196 202 215 149 163 182 188 181 167 167 167 164 159 157 153 145 140 141 118 126 129 122 117 112 106 101 93 67 48
202 213 208 222 225 236 242 221 211 226 225 230 236 237 255 206 204 225 221 183 194 194 183 174 169 166 160 162 149 147 144 133 132 131 126 124 124 120 117 110 99 86 69 48
202 215 200 216 215 229 204 236 214 222 229 228 236 249 250 226 205 226 237 227 205 190 179 173 165 163 160 150 148 136 136 137 135 130 130 126 122 113 110 103 86 74 72 56
206 196 215 210 218 225 220 227 221 233 232 230 233 237 244 228 223 237 265 255 231 182 168 166 162 157 150 148 141 140 141 141 137 135 132 127 125 125 123 104 89 64 65 59
204 208 218 208 224 219 215 212 217 221 229 231 218 232 240 223 230 222 238 214 200 148 153 160 155 149 147 146 147 144 144 144 139 135 132 127 123 114 100 112 102 86 3 87
209 191 213 216 222 239 207 216 188 217 222 209 219 221 231 233 239 237 308 156 150 149 154 152 152 154 149 151 150 146 144 142 139 139 130 125 126 128 120 109 92 76 42 51
202 194 207 215 211 224 231 212 200 203 234 250 214 224 225 232 239 161 147 148 148 152 153 154 156 149 154 154 149 145 144 142 141 132 120 116 113 124 117 111 107 103 22 110
207 209 213 216 221 317 252 244 240 204 211 236 254 242 209 218 228 155 157 155 154 154 156 159 154 153 157 156 156 149 143 142 136 124 121 124 120 125 115 110 134 135 112 37
198 203 225 232 230 236 234 243 239 270 242 240 254 238 210 212 218 156 162 160 156 155 162 156 149 157 157 158 154 141 140 138 134 129 124 124 130 126 122 122 112 72 52 45
178 206 224 230 227 225 228 225 221 208 216 243 269 269 273 198 170 166 169 161 156 160 155 151 159 160 158 154 144 142 144 147 136 133 131 137 137 117 98 61 49 99 64 52
231 213 208 233 216 229 229 224 244 250 252 222 229 244 242 196 167 169 166 162 159 157 156 157 156 154 153 148 144 150 151 148 145 136 147 144 139 167 137 139 105 53 115 112